User: anonymous   Login
Location: Newark
(52.4787°S, 179.0532°W)
Time: 18:53:43
(UTC+00:00)
Language:

DUCHIFAT 1 - Orbit

View from above orbital plane
View from above orbital plane
View from above satellite
View from above satellite

Ground track
Ground track

The orbit data is extracted from the following two-line orbital elements,

1 40021U 14033M   19341.51724999  .00000210  00000-0  27255-4 0  9990
2 40021  97.9313 266.7209 0012216 197.9665 162.1123 14.90755619297144
Epoch (UTC): 07 December 2019 12:24:50
Eccentricity: 0.0012216
inclination: 97.9313°
perigee height: 587 km
apogee height: 604 km
right ascension of ascending node: 266.7209°
argument of perigee: 197.9665°
revolutions per day: 14.90755619
mean anomaly at epoch: 162.1123°
orbit number at epoch: 29714

The dashed part of the orbit path shows where the satellite is in the earth's shadow,  

DLR